AZU2672 SBVT-SBCF

Flight info

Callsign AZU2672
Flight time N/A
Altitude 28000
Route OPLOX UZ34 NIPDA
Aircraft E195/M-SDE3GILORVW/S

Departure

Time 2026-04-23 02:46
Airport Eurico de Aguiar Salles International Airport (SBVT)

Arrival

Time N/A
Airport Tancredo Neves International Airport (SBCF)
Time Latitude Longitude Altitude Speed Heading
2026-04-23 02:23 -20.26540 -40.28165 32 ft 0 kts 261°
2026-04-23 02:37 -20.26540 -40.28160 32 ft 4 kts 260°
2026-04-23 02:38 -20.26536 -40.28141 32 ft 4 kts 251°
2026-04-23 02:38 -20.26525 -40.28116 32 ft 4 kts 226°
2026-04-23 02:38 -20.26505 -40.28103 32 ft 3 kts 175°
2026-04-23 02:38 -20.26502 -40.28103 31 ft 1 kts 172°
2026-04-23 02:42 -20.26503 -40.28103 32 ft 1 kts 172°
2026-04-23 02:43 -20.26528 -40.28099 32 ft 6 kts 170°
2026-04-23 02:43 -20.26570 -40.28072 32 ft 8 kts 134°
2026-04-23 02:43 -20.26602 -40.28020 32 ft 9 kts 125°
2026-04-23 02:43 -20.26615 -40.27967 32 ft 0 kts 84°
2026-04-23 02:44 -20.26614 -40.27957 32 ft 3 kts 81°
2026-04-23 02:44 -20.26607 -40.27925 32 ft 6 kts 81°
2026-04-23 02:44 -20.26591 -40.27872 31 ft 8 kts 66°
2026-04-23 02:44 -20.26554 -40.27854 30 ft 5 kts 355°
2026-04-23 02:45 -20.26540 -40.27856 30 ft 0 kts 352°
2026-04-23 02:45 -20.26446 -40.27869 29 ft 42 kts 352°
2026-04-23 02:45 -20.25884 -40.27953 29 ft 120 kts 352°
2026-04-23 02:46 -20.24842 -40.28103 251 ft 171 kts 352°
2026-04-23 02:46 -20.23620 -40.28273 1252 ft 179 kts 360°
2026-04-23 02:46 -20.22433 -40.27814 2187 ft 195 kts 40°
2026-04-23 02:46 -20.21428 -40.26791 3220 ft 205 kts 44°
2026-04-23 02:47 -20.20291 -40.25758 4125 ft 224 kts 39°
2026-04-23 02:47 -20.19021 -40.24766 5286 ft 233 kts 34°
2026-04-23 02:47 -20.17438 -40.24007 6068 ft 266 kts 10°
2026-04-23 02:47 -20.15509 -40.24134 6848 ft 298 kts 343°
2026-04-23 02:48 -20.13668 -40.25353 7407 ft 334 kts 315°
2026-04-23 02:48 -20.12053 -40.27930 7718 ft 311 kts 295°